www.pogodaiklimat.ru

Погода и климат >> Архив погоды >> Кот-д'Ивуар >> Корого


ПОГОДА в Корого

  • Прогноз погоды в Корого
  • Монитор погоды в Корого

АРХИВ ПОГОДЫ в Корого

Время (UTC), дата Ветер
(напр.,м/с)
 
Видим.   Явления Облачность Т
(С)
Тd
(С)
f
(%)
Тe
(С)
Тes
(С)
Комфортность P
(гПа)
Po
(гПа)
Тmin
(С)
Tmax
(С)
R
(мм)
R24
(мм)
S
(см)
00 12.06 Ю 2 10 км 5/3 400 м
[Sc Ci sp]
+23.9 +23.4 97 +32 +32 очень
душно
1012.4 971.3
06 12.06 Ю 1 10 км 8/6 150 м
[Cb cap Ac trans]
+23.9 +23.4 97 +32 +32 очень
душно
1012.6 971.5 +23.6 0.2
12 12.06 Ю 3 10 км 8/8 400 м
[Cu med, cong Ci sp]
+29.3 +22.8 68 +39 +42 очень
душно
1013.2 972.7
18 12.06 Ю 3 10 км 9/3 400 м
[Cu med, cong Ci sp]
+29.9 +21.6 61 +38 +38 очень
душно
1010.3 970.0 +31.6
00 13.06 ЮЗ 2 10 км ясно +24.3 +22.6 90 +32 +32 очень
душно
1013.6 970.5
06 13.06 ЮЗ 1 10 км 3/0
[Ac trans]
+22.4 +21.7 96 +30 +30 очень
душно
1014.4 973.0 +22.4
12 13.06 ЮЗ 5 10 км 9/8 400 м
[Cu med, cong Ac trans]
+29.7 +22.2 64 +39 +40 очень
душно
1013.8 973.4
18 13.06 Ю 1 10 км 5/4 400 м
[Cb cap Ci sp]
+31.6 +20.9 53 +39 +39 очень
душно
1009.9 969.8 +33.1
21 13.06 ЮЗ 2 10 км зарница 8/5 400 м
[Sc Ci sp]
+28.7 +22.2 68 +37 +37 очень
душно
1012.8 972.3
00 14.06 штиль 0 10 км 8/3 400 м
[Sc Ac trans]
+27.0 +22.0 74 +35 +35 очень
душно
1013.3 972.5
03 14.06 З 2 10 км 9/6 400 м
[Sc Ac trans]
+26.4 +22.7 80 +35 +35 очень
душно
1012.0 971.2
06 14.06 Ю 2 10 км 8/1 400 м
[Sc Ac trans]
+24.6 +22.7 89 +32 +32 очень
душно
1013.1 972.0 +24.5
09 14.06 ЮЗ 2 10 км 8/0
[Ac trans Ci sp]
+28.3 +22.8 72 +38 +44 очень
душно
1013.5 972.9
12 14.06 СЗ 1 10 км 8/8 400 м
[Cu med, cong Ac trans]
+31.4 +21.6 56 +40 +44 очень
душно
1012.6 972.4
15 14.06 СВ 3 10 км {дождь} 9/3 400 м
[Cb cap Ac trans]
+33.2 +21.9 52 +42 +46 опасность
перегрева
1009.4 969.5
18 14.06 С 1 10 км 10/8 400 м
[Cb cap Ac As]
+27.6 +24.8 85 +39 +39 очень
душно
1009.9 969.4 +35.6 3
21 14.06 Ю 3 10 км {гроза} 5/0
[Ci]
+25.0 +22.1 84 +32 +32 очень
душно
1013.4 972.4
00 15.06 ЮВ 8 1000 м сильн. гроза, ливневой дождь 10/10 400 м
[Cb cap]
+23.2 +20.9 87 +31 +31 очень
душно
1017.1 975.6 6
09 15.06 Ю 1 10 км 6/4 400 м
[Sc Ac trans Ci sp]
+25.0 +21.7 82 +32 +37 очень
душно
1013.6 972.5
12 15.06 Ю 2 10 км 8/3 400 м
[Cu med, cong Ci sp]
+29.2 +21.9 65 +38 +50 очень
душно
1012.6 972.1
15 15.06 Ю 2 10 км 8/5 400 м
[Cu med, cong Ac trans]
+30.6 +22.7 63 +40 +44 очень
душно
1010.5 970.3
18 15.06 ЮЗ 2 10 км 6/4 400 м
[Cu med, cong Ac trans]
+30.2 +22.6 64 +40 +40 очень
душно
1011.3 971.0 +31.1
21 15.06 Ю 3 10 км 3/3 400 м
[Sc]
+26.9 +22.5 77 +35 +35 очень
душно
1014.1 973.3
00 16.06 ЮЗ 2 10 км 5/1 400 м
[Sc Ac trans]
+25.2 +22.7 86 +33 +33 очень
душно
1015.1 974.0
06 16.06 ЮЗ 2 10 км 8/0
[Ac trans Ci sp]
+23.0 +22.3 96 +31 +31 очень
душно
1013.5 972.2 +23.0
09 16.06 ЮЗ 3 10 км 3/0
[Ci sp]
+26.2 +22.5 80 +34 +41 очень
душно
1013.9 973.0
12 16.06 10 км н/о +30.9 +23.6 65 +42 +53 опасность
перегрева
1012.5 972.3
15 16.06 Ю 2 10 км 5/5 400 м
[Cu med, cong]
+32.8 +22.9 56 +43 +49 опасность
перегрева
1009.9 970.0
18 16.06 С 1 10 км 5/5 450 м
[Cu med, cong]
+32.5 +22.0 54 +41 +42 опасность
перегрева
1009.9 970.0 +33.5
21 16.06 Ю 2 10 км {гроза} 3/0
[Ci sp]
+27.8 +21.8 70 +36 +36 очень
душно
1012.2 971.6
00 17.06 Ю 2 10 км ясно +26.7 +23.0 80 +36 +36 очень
душно
1013.3 972.5
03 17.06 Ю 2 10 км ясно +24.8 +23.2 91 +33 +33 очень
душно
1012.1 971.1
06 17.06 Ю 3 10 км 9/9 400 м
[Sc]
+24.1 +22.9 93 +32 +32 очень
душно
1012.9 971.8 +24.1
09 17.06 Ю 3 10 км 8/8 400 м
[Cu med, cong]
+26.3 +22.4 79 +34 +36 очень
душно
1015.2 974.3
15 17.06 Ю 3 10 км гроза без осадков 9/8 400 м
[Cb cap Ci sp]
+27.1 +21.4 71 +34 +36 очень
душно
1011.0 969.9
18 17.06 С 2 10 км {гроза} 8/4 400 м
[Cb cap Ci sp]
+29.0 +23.7 73 +40 +40 очень
душно
1009.8 969.5 +30.8
21 17.06 С 1 10 км 4/3 400 м
[Cu med, cong Ac trans]
+26.1 +24.0 88 +36 +36 очень
душно
1012.7 971.9
00 18.06 С 1 10 км 8/0
[Ac trans]
+25.2 +23.6 91 +34 +34 очень
душно
1014.4 973.4
03 18.06 С 1 10 км 8/0
[Ci sp]
+23.9 +23.6 98 +32 +32 очень
душно
1013.2 972.1
06 18.06 Ю 1 10 км 3/0
[Ci sp]
+23.6 +23.1 97 +31 +31 очень
душно
1013.4 972.2 +23.4
09 18.06 Ю 4 8000 м 10/10 400 м
[Cu med, cong]
+25.2 +23.1 88 +34 +34 очень
душно
1015.2 974.1
12 18.06 ЮЗ 3 10 км 8/8 400 м
[Cu med, cong]
+29.3 +22.3 66 +38 +42 очень
душно
1013.3 972.8
15 18.06 ЮЗ 3 10 км 6/6 400 м
[Cu med, cong]
+32.6 +21.1 51 +40 +45 очень
душно
1010.8 970.8
18 18.06 ЮВ 2 10 км 6/6 400 м
[Cu med, cong]
+31.7 +21.2 54 +39 +40 очень
душно
1010.9 970.8 +33.2

 

Местоположение метеостанции Корого (Кот-д'Ивуар): широта 9.42 долгота -5.62 высота над уровнем моря 381 м.

В архиве по умолчанию представлена погода в Корого за последнюю неделю. Архивные данные за месяц целиком и за предыдущие месяцы, начиная с января 2011 года, Вы можете получить, выбрав интересующий диапазон дат из раскрывающегося списка и нажав кнопку "Ввод!".


*Определитесь, кто Вы:
робот инопланетянин человек

Внимание! Время в таблицах - всемирное. Для получения местного времени необходимо прибавить поправку, которая равна 0 ч.

Смотрите также архив погоды в соседних городах и на ближайших метеорологических станциях:

Погода в Буаке (Кот-д'Ивуар) (196 км)
Погода в Одиенне (Кот-д'Ивуар) (213 км)
Погода в Сикасо (Мали) (215 км)
Погода в Бобо-Диуласо (Буркина-Фасо) (241 км)
Погода в Ямусукро (Кот-д'Ивуар) (282 км)
Погода в Гауа (Буркина-Фасо) (286 км)
Погода в Далоа (Кот-д'Ивуар) (299 км)
Погода в Бугуни (Мали) (303 км)
Погода в Мане (Кот-д'Ивуар) (309 км)
Погода в Димбокро (Кот-д'Ивуар) (324 км)

Пояснения к столбцам:

Ветер - указаны скорость ветра в м/с - средняя за 10 мин, порывы в срок и между сроками (в фигурных скобках) и направление, откуда дует ветер: С - северный, СВ - северо-восточный, В - восточный, ЮВ - юго-восточный, Ю - южный, ЮЗ - юго-западный, З - западный, СЗ - северо-западный.
Видимость - горизонтальная дальность видимости в метрах или километрах. При видимости от 1 до 10 км при отсутствии осадков обычно наблюдается дымка, при ухудшении видимости до 1 км и менее - туман. В сухую погоду видимость может ухудшаться дымом, пылью или мглою.
Явления - указаны атмосферные явления, наблюдавшиеся в срок или в последний час перед сроком; фигурными скобками обозначены явления, наблюдавшиеся между сроками (за 1-3 часа до срока); квадратными скобками обозначены град или гололедные отложения с указанием их диаметра в мм.
Облачность - указаны через наклонную черту общая и нижняя облачность в баллах и высота нижней границы облаков в метрах; квадратными скобками обозначены формы облаков: Ci - перистые, Cs - перисто-слоистые, Cc - перисто-кучевые, Ac - высококучевые, As - высокослоистые, Sc - слоисто-кучевые, Ns - слоисто-дождевые, Cu - кучевые, Cb - кучево-дождевые. Подробнее классификацию облаков см. в Атласе облаков (PDF).
T - Температура воздуха - температура, измеренная на высоте 2 м над землей.
Td - Температура точки росы - температура, при понижении до которой содержащийся в воздухе водяной пар достигнет насыщения.
f - Относительная влажность воздуха - влажноcть воздуха, измеренная на высоте 2 м над землей.
Te - Эффективная температура - температура, которую ощущает одетый по сезону человек в тени. Характеристика душности погоды. При расчете учитывается влияние влажности воздуха и скорости ветра на теплоощущения человека.
Tes - Эффективная температура на солнце - температура, которую ощущает человек, с поправкой на солнечный нагрев. Характеристика знойности погоды. Зависит от высоты солнца над горизонтом, облачности и скорости ветра. Ночью, в пасмурную погоду, а также при ветре 12 м/с и более поправка равна нулю.
P - Атмосферное давление - приведенное к уровню моря атмосферное давление.
Po - Атмосферное давление - измеренное на уровне метеостанции атмосферное давление.
Tmin - Минимальная температура - минимум температуры воздуха на высоте 2 м над землей.
Tmax - Максимальная температура - максимум температуры воздуха на высоте 2 м над землей.
R - Количество осадков - Количество выпавших осадков за период времени, мм. При наведении курсора мыши на число - период времени, за который выпало указанное количество осадков.
R24 - Количество осадков - Количество выпавших осадков за 24 часа, мм.
S - Снежный покров - Высота снежного покрова, см. При наведении курсора мыши на число - состояние снежного покрова и степень покрытия местности в баллах.